Showing default

FLOCK 4BE 3, 60561

Orbit data source: Space-Track

FLOCK 4BE 3, 60561 is a payload satellite owned by Planet (US) in SSO that was launched on Fri, 16 Aug 2024 UTC via an FALCON 9 launch vehicle from the Air Force Western Test Range (AFWTR). Payload-class satellites include a variety of spacecraft equipped with specific instruments for various scientific and technological missions. These include communications satellites like Starlink; space stations such as the ISS; scientific satellites like the Hubble; Earth observation satellites from companies like Planet Labs, Umbra, and HawkEye 360; GPS; miniature CubeSats for education and research; and military/defense satellites.

Loading next visibility...
Identifier
60561, 2024-149CX
Orbit
SSO
Country
Flag of USUS
Related business
Manufacturer
Planet
Mission
Operational Commercial Imaging
Bus & Motor
CUBESAT 3U, Unknown motor
Mass
5.7 kg wet, 5.7 kg dry
Launch date (UTC)
2024-08-16 (2 years ago)
Launch vehicle
FALCON 9
Launch site
Air Force Western Test Range (AFWTR)
Object type
Payload
Rocket body
Debris
Shape & HBR
Box + 2 Pan, 1.0 m
Radar Cross Section
0.072 m², Medium (>0.1 m² and < 1m²)

Expand to show TLE details & history
Last TLE update: 22 hours ago

TLE from 22 hours ago
0 FLOCK 4BE 3
1 60561U 24149CX  26174.50733222  .00010526  00000-0  25132-3 0  9992
2 60561  97.3695 258.4813 0002999 244.8145 115.2791 15.41707651103318
Epoch: 2026-06-23T12:10Z
TLE epoch observation values (Epoch: 2026-06-23T12:10:33.503Z)
Latitude
-0.00006°
Longitude
164.16381°
Altitude
445.064 km
Speed
7.645 km/s
True Right ascension
17h 13m 55s
True Declination
0° 00' 00"
Sunlit
Object was in full shadow at epoch
Visualization orbit readout
Latitude
Unknown
Longitude
Unknown
Altitude
Unknown
Speed
Unknown
Apparent Right ascension
Unknown
Apparent Declination
Unknown
Sunlit
N/A
Visualization observer readout
Local Sidereal Time
21:48:59
Azimuth
Unknown
Elevation
Unknown
Doppler factor
Unknown
Orbital elements
Apogee altitude
440.049 km
Perigee altitude
435.96 km
Semi-major axis
6,816.142 km
Eccentricity
0.0003
Inclination
97.3695°
RAAN
258.4813°
Arg. of periapsis
244.8145°
True anomaly
115.31017°
Mean anomaly
115.2791°
Eccentric anomaly
115.29464°
Mean motion
3.85687 °/min
Orbital period
93.34 mins
BSTAR
0.00025132
Loading maneuver chart data...
Computing Atmospheric mass density...
Loading historical data...
Loading historical data...
Loading historical data...
Loading historical data...
Loading historical data...
Loading historical data...
Loading historical data...

Documentation

Showing up to 5 results
|